Regional Weather Roundup
Issued by NWS Green Bay, WI

Home | Current Version | Previous Version | Graphics & Text | Print | Product List | Glossary Off
Versions: 1 2 3 4 5 6 7 8 9 10 11 12 13 14 15 16 17 18 19 20 21 22 23 24 25 26 27 28 29 30 31 32 33 34 35 36 37 38 39 40 41 42 43 44 45 46 47 48 49 50

000
ASUS43 KGRB 270859
RWRGRB

NORTH-CENTRAL AND NORTHEAST WISCONSIN REGIONAL WEATHER ROUNDUP
NATIONAL WEATHER SERVICE GREEN BAY WI
400 AM CDT MON APR 27 2015

WIZ005-009-010>012-018-019-271000-
NORTH CENTRAL WISCONSIN

CITY           SKY/WX    TMP DP  RH WIND       PRES   REMARKS
IRONWOOD       CLEAR     27  25  93 W3        30.15S
MANITOWISH WTR NOT AVBL
ARBOR VITAE    NOT AVBL
EAGLE RIVER    NOT AVBL
LAND O LAKES   NOT AVBL
RHINELANDER    CLEAR     35  26  69 N3        30.13S
PHILLIPS       CLEAR     29  25  84 CALM      30.15R
ANTIGO         NOT AVBL
TOMAHAWK       NOT AVBL
MERRILL        NOT AVBL
$$

WIZ013-073-271000-
NORTHEAST WISCONSIN

CITY           SKY/WX    TMP DP  RH WIND       PRES   REMARKS
IRON MOUNTAIN  CLEAR     35  27  72 NW7       30.09R
MARINETTE      CLEAR     37  27  65 N7        30.09S
$$

WIZ017-030-035>037-045-271000-
CENTRAL WISCONSIN

CITY           SKY/WX    TMP DP  RH WIND       PRES   REMARKS
MEDFORD        NOT AVBL
WAUSAU           N/A     38  29  70 N3        30.12S
MOSINEE        NOT AVBL
MARSHFIELD     CLEAR     39  29  67 CALM      30.13R
WISC RAPIDS    CLEAR     35  28  75 CALM      30.14R
STEVENS POINT  NOT AVBL
WAUPACA        CLEAR     36  31  81 NW5       30.13R
SHAWANO        CLEAR     35  29  79 CALM      30.12R
CLINTONVILLE   CLEAR     36  30  80 NW3       30.11S
$$

WIZ038-039-048-051-271000-
FOX VALLEY

CITY           SKY/WX    TMP DP  RH WIND       PRES   REMARKS
NWS GREEN BAY  CLEAR     39  30  70 NW6       30.10S
APPLETON       NOT AVBL
OSHKOSH        CLEAR     40  32  73 NW8       30.10R
FOND DU LAC    CLEAR     36  29  75 NW7       30.10S
$$

WIZ022-050-052-271000-
EAST CENTRAL WISCONSIN

CITY           SKY/WX    TMP DP  RH WIND       PRES   REMARKS
STURGEON BAY   CLOUDY    39  28  65 N9        30.11S
MANITOWOC      NOT AVBL
SHEBOYGAN      CLEAR     38  30  73 NW7       30.08S
$$

LMZ563-521-522-541>543-271000-
LAKESHORE

STATION/POSITION TIME  TEMP    WIND        PRES    VSBY  WAVE
                       AIR SEA DIR/SP/G                  HT/PER
                 (UTC) (F)     (DEG/KT/KT) (MB)    (MI)  (FT/S)
SHEBOYGAN LKSHOR 0800   45     340/ 14/ 15 1019.2F
KEWAUNEE LKSHORE 0800   40     310/  4/  7 1018.0R
NORTHPORT PIER   0800   40     310/  7/  9 1018.6S
SISTER BAY LKSHO 0800   42      10/ 11/ 13   N/A
CHAMBERS ISLAND  0800   41     300/  7/  9 1019.0S
MENOMINEE LKSHOR 0800   42     320/ 10/ 11 1019.4R
$$


USA.gov is the U.S. government's official web portal to all federal, state and local government web resources and services.